User: anonymous   Login
Location: Fort Wayne
(41.1310°N, 85.1290°W)
Time: 07:13:33
(UTC-05:00)
Language:

Cosmos 2056 Rocket - Orbit

View from above orbital plane
View from above orbital plane
View from above satellite
View from above satellite

Ground track
Ground track

The orbit data is extracted from the following two-line orbital elements,

1 20433U 90004B   16338.22076728 -.00000016  00000-0  34478-5 0  9999
2 20433  74.0361 355.9066 0040787 174.9022 255.8552 14.35965010407074
Epoch (UTC): 03 December 2016 05:17:54
Eccentricity: 0.0040787
inclination: 74.0361°
perigee height: 743 km
apogee height: 801 km
right ascension of ascending node: 355.9066°
argument of perigee: 174.9022°
revolutions per day: 14.35965010
mean anomaly at epoch: 255.8552°
orbit number at epoch: 40707

The dashed part of the orbit path shows where the satellite is in the earth's shadow,  

DLR